www.pogodaiklimat.ru

Погода и климат >> Архив погоды >> Гренландия >> Mittarfik Upernavik


ПОГОДА в Mittarfik Upernavik

  • Прогноз погоды в Mittarfik Upernavik
  • Монитор погоды в Mittarfik Upernavik

АРХИВ ПОГОДЫ в Mittarfik Upernavik

Время (UTC), дата Ветер
(напр.,м/с)
 
Видим.   Явления Облачность Т
(С)
Тd
(С)
f
(%)
Тe
(С)
Тes
(С)
Комфортность P
(гПа)
Po
(гПа)
Тmin
(С)
Tmax
(С)
R
(мм)
R24
(мм)
S
(см)
22 17.06 З 4 100 м слаб. снег 10/10 60 м
[]
+0.2 +0.2 100 -5 -5 1017.0 1001.1
23 17.06 З 3 100 м слаб. дождь со снегом 10/10 60 м
[]
-0.6 -0.6 100 -6 -6 1017.0 1001.0
00 18.06 З 4 100 м снежные зёрна ?/? 0.0 -0.2 99 -5 -5 1016.7 1000.7
01 18.06 З 2 100 м слаб. снег 10/10 60 м
[]
-0.3 -0.3 100 -4 -4 1016.4 1000.5
02 18.06 З 3 100 м снежные зёрна 10/10 60 м
[]
-0.3 -0.3 100 -5 -5 1016.2 1000.3
03 18.06 З 2 100 м слаб. снег ?/? -0.3 -0.3 100 -4 -4 1016.0 1000.0
04 18.06 З 4 100 м снежные зёрна 10/10 60 м
[]
-0.2 -0.2 100 -6 -6 1015.9 999.9
05 18.06 З 3 100 м слаб. дождь со снегом 10/10 60 м
[]
-0.3 -0.3 100 -5 -5 1015.7 999.8
06 18.06 З 2 100 м снежные зёрна ?/? -0.1 -0.1 100 -4 -4 1015.5 999.6 -0.7 +1.2
07 18.06 З 1 100 м туман {снег} 10/10 60 м
[]
+0.1 +0.1 100 -2 -2 1015.5 999.5
08 18.06 В 1 100 м туман {снег} 10/10 60 м
[]
+0.3 +0.3 100 -2 -2 1015.3 999.4
09 18.06 ЮЗ 1 100 м туман {снег} ?/? +0.4 +0.4 100 -0 -0 1015.3 999.4
10 18.06 ЮВ 2 400 м туман {снег} 10/10 30 м
[]
+1.0 +1.0 100 -3 -3 1015.0 999.1
11 18.06 В 2 40 км в посл. час туман 10/0 2000 м
[]
+1.3 +1.3 100 -2 +1 1014.8 999.0
12 18.06 0 40 км 10/10 1500 м
[]
+1.7 1014.8 998.9
13 18.06 В 2 45 км 10/10 1500 м
[]
+3.1 +2.9 99 -0 -0 1014.4 998.7
14 18.06 В 2 40 км 10/10 1500 м
[]
+3.7 +3.3 97 +1 +1 1014.3 998.6
15 18.06 СЗ 2 30 км 10/0
[]
+3.5 +3.1 97 0 +5 1014.3 998.6
16 18.06 Ю 2 45 км 9/9 1500 м
[]
+5.3 +2.8 84 +3 +4 1013.7 998.1
17 18.06 ЮВ 1 45 км 10/10 1500 м
[]
+5.7 +2.4 79 +5 +5 1013.3 997.8
18 18.06 ЮВ 1 35 км 10/10 1500 м
[]
+5.2 +2.3 82 +4 +4 1013.2 997.6 +1.5 +20.7
19 18.06 З 2 35 км в посл. час морось {ливн. осадки} 10/0 2000 м
[]
+5.8 +2.3 78 +4 +8 1013.0 997.4
20 18.06 СВ 1 45 км {ливн. осадки, морось} 10/10 1470 м
[]
+7.2 +2.7 73 +6 +6 1012.8 997.3
21 18.06 З 2 30 км {ливн. осадки, морось} 4/4 1350 м
[]
+8.0 +2.1 66 +7 +9 1012.6 997.2
22 18.06 З 2 40 км {ливн. осадки, морось} 1/1 1380 м
[]
+6.9 +1.3 67 +5 +8 1012.6 997.0
23 18.06 З 3 35 км {ливн. осадки, морось} н/о +6.5 +1.1 68 +4 +4 1012.4 996.9
00 19.06 З 1 30 км 4/0
[]
+7.0 +1.1 66 +6 +7 1012.0 996.5
01 19.06 СЗ 2 30 км н/о +6.4 -0.4 62 +5 +5 1011.8 996.3
02 19.06 СВ 2 40 км н/о +6.7 +0.6 65 +5 +5 1011.3 995.8
03 19.06 Ю 1 45 км н/о +6.8 +0.7 65 +6 +6 1011.0 995.5
04 19.06 СЗ 2 40 км 5/0
[]
+7.2 -0.3 59 +5 +6 1010.5 995.1
05 19.06 Ю 7 45 км 8/0
[]
+8.3 +2.1 65 +4 +4 1009.9 994.5
06 19.06 Ю 12-16
{13}
45 км 9/0 2000 м
[]
+8.6 +2.4 65 +3 +3 1009.4 994.0 +5.1 +8.6
07 19.06 Ю 11 30 км 10/10 1260 м
[]
+8.7 +1.8 62 +4 +4 1009.2 993.9
08 19.06 Ю 8 35 км 10/10 1170 м
[]
+7.2 +0.2 61 +3 +3 1009.2 993.8
09 19.06 Ю 7
{12}
24 км 10/10 1320 м
[]
+7.4 -0.2 59 +3 +3 1009.0 993.6
10 19.06 Ю 8 50 км 10/10 1350 м
[]
+6.7 -1.1 57 +2 +2 1008.6 993.2
11 19.06 Ю 12 45 км 9/9 1380 м
[]
+8.5 -0.7 52 +4 +4 1008.0 992.7
12 19.06 Ю 13
{12}
30 км 9/0
[]
+8.4 -1.6 49 +3 +3 1007.7 992.3
13 19.06 ЮЗ 14 30 км 9/9 1500 м
[]
+8.6 -0.6 52 +3 +3 1007.5 992.2
14 19.06 Ю 14 30 км 10/10 1350 м
[]
+8.7 -2.0 47 +3 +3 1007.8 992.5
15 19.06 Ю 15-22
{22}
40 км 10/10 1470 м
[]
+8.4 -2.8 45 +3 +3 1008.2 992.9
16 19.06 Ю 15
{22}
18 км морось 10/10 1080 м
[]
+7.4 +0.1 60 +1 +1 1008.2 992.8
17 19.06 Ю 16 6000 м слаб. дождь {морось} 10/10 1500 м
[]
+6.9 -2.5 51 +1 +1 1007.4 992.0
18 19.06 Ю 15
{22}
6000 м слаб. дождь 10/10 1230 м
[]
+6.8 +0.7 65 0 0 1008.1 992.6 +5.9 +9.7
19 19.06 Ю 12 7000 м слаб. дождь 10/10 1000 м
[]
+6.4 +2.5 76 0 0 1008.6 993.1
20 19.06 Ю 9 7000 м слаб. дождь 10/10 700 м
[]
+6.4 +3.1 79 +1 +1 1008.9 993.5
21 19.06 ЮЗ 12-15
{18}
7000 м слаб. дождь 10/10 540 м
[]
+4.6 +2.1 84 -3 -3 1009.5 993.9
22 19.06 ЮЗ 13 7000 м слаб. дождь 10/10 700 м
[]
+3.5 +2.5 93 -5 -5 1009.7 994.0
23 19.06 ЮЗ 13 4300 м слаб. дождь 10/10 720 м
[]
+3.6 +2.6 93 -4 -4 1009.6 993.9
00 20.06 ЮЗ 11
{18}
9000 м слаб. дождь 10/10 700 м
[]
+3.3 +2.6 95 -4 -4 1010.1 994.5
01 20.06 ЮЗ 7 7000 м слаб. дождь 10/10 120 м
[]
+2.7 +2.5 99 -4 -4 1010.8 995.1
02 20.06 З 6 200 м слаб. дождь 10/10 60 м
[]
+2.3 +2.1 99 -4 -4 1011.1 995.3
03 20.06 З 6 100 м слаб. дождь ?/? +1.9 +1.9 100 -5 -5 1011.2 995.5
04 20.06 СЗ 3 100 м слаб. дождь 10/10 60 м
[]
+1.8 +1.6 99 -3 -3 1011.1 995.3
05 20.06 В 1 100 м слаб. дождь 10/10 90 м
[]
+2.0 +1.8 99 +1 +1 1011.0 995.2
06 20.06 В 4 100 м слаб. дождь 10/10 90 м
[]
+1.8 +1.8 100 -3 -3 1010.9 995.1 +1.4 +7.2
07 20.06 СВ 2 800 м осадки 10/10 750 м
[]
+2.2 +2.2 100 -1 -1 1010.9 995.2
08 20.06 С 2 100 м слаб. ливневой снег 10/10 90 м
[]
+1.8 +1.8 100 -2 -2 1011.0 995.3
09 20.06 С 4 100 м туман {ливн. осадки, снег} ?/? +1.4 +1.4 100 -4 -4 1011.0 995.3
10 20.06 С 2 100 м туман {ливн. осадки, снег} 10/10 60 м
[]
+2.0 +2.0 100 -1 -1 1011.0 995.3
11 20.06 В 2 100 м туман {ливн. осадки, снег} 10/10 60 м
[]
+2.2 +2.2 100 -1 -1 1010.8 995.1
12 20.06 СЗ 2 100 м туман ?/? +2.1 +2.1 100 -1 -1 1010.6 994.9
13 20.06 С 3 100 м туман {ливн. осадки, осадки} 10/10 60 м
[]
+1.5 +1.5 100 -3 -3 1010.7 995.0
14 20.06 С 4 100 м туман {ливн. осадки, осадки} 10/10 60 м
[]
+1.6 +1.6 100 -4 -4 1010.7 995.0
15 20.06 С 2 100 м туман {ливн. осадки, осадки} ?/? +2.1 +2.1 100 -2 -2 1010.5 994.8
16 20.06 С 2 100 м туман {ливн. осадки, осадки} 10/10 60 м
[]
+1.5 +1.5 100 -2 -2 1010.5 994.7
17 20.06 С 4 100 м туман {ливн. осадки, осадки} 10/10 60 м
[]
+1.6 +1.4 99 -3 -3 1010.7 994.9
18 20.06 С 4 900 м в посл. час туман 10/10 60 м
[]
+1.4 +1.4 100 -4 -4 1010.8 995.0 +1.0 +2.8
19 20.06 С 4 2100 м в посл. час туман 10/10 60 м
[]
+1.7 +1.7 100 -3 -3 1010.7 995.0
20 20.06 С 5 12 км {туман} 10/10 120 м
[]
+1.3 +1.3 100 -5 -5 1010.9 995.1
21 20.06 СЗ 3 10 км {туман} 10/10 90 м
[]
+1.4 +1.2 99 -3 -3 1011.1 995.3
22 20.06 СЗ 3 11 км {туман} 10/10 90 м
[]
+1.3 +1.3 100 -3 -3 1011.2 995.4
23 20.06 С 2 9000 м {туман} 10/10 120 м
[]
+1.8 +1.6 99 -2 -2 1011.1 995.4
00 21.06 СЗ 2 6000 м 10/10 90 м
[]
+1.3 +1.3 100 -2 -2 1011.4 995.6
01 21.06 С 3 1800 м дымка 10/10 60 м
[]
+1.1 +1.1 100 -4 -4 1011.3 995.5
02 21.06 СЗ 3 6000 м дымка 10/10 90 м
[]
+1.0 +1.0 100 -3 -3 1011.3 995.5
03 21.06 С 2 10 км дымка 10/10 90 м
[]
+0.9 +0.9 100 -3 -3 1010.9 995.1
04 21.06 СЗ 2 8000 м дымка 10/10 90 м
[]
+0.9 +0.9 100 -2 -2 1010.7 994.9
05 21.06 С 1 6000 м дымка 9/9 90 м
[]
+1.2 +1.0 99 +1 +1 1010.2 994.4
06 21.06 В 1 9000 м 9/9 270 м
[]
+1.4 +1.2 99 +1 +1 1010.0 994.2 +0.9 +2.1
07 21.06 Ю 1 6000 м 10/10 180 м
[]
+1.8 +1.8 100 +1 +1 1009.9 994.1
08 21.06 ЮЗ 1 8000 м 9/9 90 м
[]
+2.3 +2.1 99 +2 +2 1009.8 994.0
09 21.06 СВ 1 4100 м дымка 10/10 60 м
[]
+2.2 +2.0 99 0 0 1009.4 993.7
10 21.06 В 1 2100 м дымка 10/10 60 м
[]
+2.2 +2.2 100 0 0 1009.2 993.5
11 21.06 СЗ 2 200 м туман {дымка} 10/10 60 м
[]
+1.9 +1.9 100 -2 -2 1009.0 993.3
12 21.06 З 1 100 м туман ?/? +2.6 +2.6 100 +2 +2 1008.9 993.2
13 21.06 СВ 1 100 м туман 10/10 60 м
[]
+2.5 +2.5 100 +1 +1 1008.8 993.1
14 21.06 С 2 700 м туман 10/10 120 м
[]
+1.8 +1.8 100 -2 -2 1008.7 993.0
15 21.06 С 4 19 км в посл. час туман 10/10 240 м
[]
+1.4 +1.2 99 -4 -4 1008.6 992.8
16 21.06 СЗ 3 26 км {туман} 9/9 420 м
[]
+2.0 +1.7 98 -3 -2 1008.3 992.6
17 21.06 С 3 18 км {туман} 9/9 420 м
[]
+2.2 +1.7 96 -2 -1 1008.0 992.3
18 21.06 С 3 21 км 9/0
[]
+3.3 +2.6 95 -1 +3 1008.0 992.3 +1.3 +3.4
19 21.06 С 3 25 км 9/9 240 м
[]
+2.6 +1.9 95 -1 -1 1008.0 992.4
20 21.06 С 3 18 км 10/10 420 м
[]
+2.6 +1.9 95 -2 -2 1008.1 992.4
21 21.06 С 5 19 км 10/10 450 м
[]
+1.8 +1.3 96 -4 -4 1008.3 992.6
22 21.06 С 6 16 км 10/10 420 м
[]
+1.7 +1.2 96 -5 -5 1008.3 992.5
23 21.06 С 5 14 км 10/10 400 м
[]
+1.3 +0.6 95 -5 -5 1008.4 992.7
00 22.06 С 4 11 км 10/10 330 м
[]
+1.3 +0.5 94 -4 -4 1008.6 992.8
01 22.06 С 5 21 км 10/10 330 м
[]
+1.2 -0.1 91 -4 -4 1008.3 992.6
02 22.06 С 5 20 км 10/10 360 м
[]
+0.9 -0.3 92 -5 -5 1008.5 992.8
03 22.06 С 6 19 км 9/9 180 м
[]
+0.7 -0.3 93 -6 -6 1008.1 992.3
04 22.06 С 6 22 км 10/10 180 м
[]
+0.7 -0.5 92 -6 -6 1007.8 992.1
05 22.06 С 6 26 км 10/10 180 м
[]
+0.4 -0.7 92 -6 -6 1007.6 991.8
06 22.06 С 6 35 км 10/10 210 м
[]
+0.4 -0.9 91 -6 -6 1007.5 991.7 +0.2 +3.8
07 22.06 С 6 35 км 10/10 210 м
[]
+0.3 -1.2 90 -6 -6 1007.2 991.4
08 22.06 С 6 35 км 10/10 210 м
[]
0.0 -1.3 91 -7 -7 1007.3 991.5
09 22.06 С 5 30 км 10/10 180 м
[]
+0.1 -1.4 90 -6 -6 1007.0 991.2
10 22.06 С 5 23 км 10/10 210 м
[]
0.0 -1.5 90 -6 -6 1006.8 991.0
11 22.06 С 5 30 км 10/10 210 м
[]
+0.1 -1.2 91 -6 -6 1006.7 990.9
12 22.06 СЗ 3 30 км 10/10 180 м
[]
-0.1 -1.4 91 -5 -5 1006.9 991.0
13 22.06 СЗ 3 40 км 10/10 150 м
[]
+0.2 -0.8 93 -5 -5 1006.8 991.0
14 22.06 СЗ 5 30 км 10/10 150 м
[]
+0.2 -0.9 92 -6 -6 1007.1 991.3
15 22.06 СЗ 4 35 км 10/10 120 м
[]
-0.3 -1.3 93 -6 -6 1007.1 991.3
16 22.06 СЗ 3 28 км 10/10 120 м
[]
-0.1 -1.2 92 -5 -5 1007.2 991.4
17 22.06 СЗ 4 30 км 10/10 120 м
[]
-0.3 -1.8 90 -6 -6 1007.4 991.5
18 22.06 СЗ 4 30 км 10/10 180 м
[]
-0.1 -1.9 88 -5 -5 1007.8 991.9 -0.6 +0.6
19 22.06 З 4 35 км 10/10 180 м
[]
+0.1 -1.7 88 -5 -5 1008.5 992.7
20 22.06 ЮЗ 7 28 км 10/10 210 м
[]
+0.3 -1.5 88 -7 -7 1009.2 993.3
21 22.06 ЮЗ 8 45 км в посл. час снег {ливн. осадки} 10/10 120 м
[]
0.0 -0.8 94 -8 -8 1009.8 994.0
22 22.06 ЮЗ 8 45 км {ливн. осадки, снег} 10/10 800 м
[]
+0.6 -2.0 83 -7 -7 1010.4 994.5
23 22.06 ЮЗ 8 45 км {ливн. осадки, снег} 10/10 840 м
[]
+0.7 -1.9 83 -6 -6 1010.9 995.0
00 23.06 Ю 8 21 км 10/10 330 м
[]
+0.6 -1.8 84 -7 -7 1011.5 995.6
01 23.06 ЮЗ 5 45 км 10/10 930 м
[]
+0.8 -2.3 80 -5 -5 1011.8 996.0
02 23.06 Ю 5 45 км 10/10 1020 м
[]
+1.7 -4.8 62 -3 -3 1012.1 996.3
03 23.06 ЮВ 4 50 км 10/10 1170 м
[]
+1.2 -2.7 75 -4 -4 1012.0 996.1
04 23.06 ЮВ 7 35 км 9/9 1230 м
[]
+1.6 -3.8 67 -5 -5 1011.7 996.0
05 23.06 Ю 3 35 км 10/10 1500 м
[]
+2.3 -4.7 60 -1 -1 1012.0 996.3
06 23.06 Ю 7 45 км 10/0
[]
+2.6 -4.4 60 -3 -3 1012.1 996.3 -0.5 +2.7
07 23.06 Ю 7 50 км 10/10 1500 м
[]
+2.9 -4.6 58 -3 -3 1011.8 996.1
08 23.06 ЮВ 6 45 км 10/10 900 м
[]
+2.8 -3.5 63 -2 -2 1011.9 996.2
09 23.06 Ю 6 45 км 10/10 750 м
[]
+2.9 -1.9 71 -3 -3 1011.8 996.1
10 23.06 ЮВ 6 27 км 10/10 660 м
[]
+2.7 -1.1 76 -3 -3 1011.7 995.9
11 23.06 Ю 9 30 км 9/9 720 м
[]
+4.1 -1.4 67 -2 -2 1011.2 995.6
12 23.06 ЮЗ 8
{15}
27 км слаб. морось 10/10 750 м
[]
+4.3 -0.1 73 -2 -2 1011.4 995.8
13 23.06 ЮЗ 10 11 км слаб. дождь {морось} 10/10 450 м
[]
+2.1 +0.4 88 -5 -5 1011.8 996.0
14 23.06 ЮЗ 9 7000 м слаб. дождь {морось} 10/10 210 м
[]
+1.9 +0.6 91 -6 -6 1012.1 996.3
15 23.06 Ю 9 13 км слаб. дождь {морось} 10/10 240 м
[]
+2.3 +0.9 90 -5 -5 1012.2 996.5
16 23.06 ЮЗ 9 10 км слаб. дождь {морось} 10/10 210 м
[]
+2.0 +0.7 91 -5 -5 1012.4 996.6
17 23.06 ЮЗ 10 12 км слаб. дождь {морось} 10/10 210 м
[]
+2.2 +1.0 92 -5 -5 1012.5 996.7
18 23.06 ЮЗ 11 14 км слаб. дождь 10/10 1500 м
[]
+2.5 +1.0 90 -5 -5 1012.6 996.9 +1.8 +4.7
19 23.06 ЮЗ 10 5000 м слаб. дождь 10/10 180 м
[]
+2.2 +1.2 93 -6 -6 1013.3 997.5
20 23.06 Ю 10 22 км слаб. ливневой дождь 10/10 240 м
[]
+2.7 +1.3 90 -5 -5 1013.6 997.8
21 23.06 ЮЗ 8 35 км слаб. ливневой дождь 10/10 1260 м
[]
+2.9 +0.6 85 -4 -4 1014.3 998.6
22 23.06 ЮЗ 7 40 км в посл. час дождь {ливн. осадки} 10/10 1380 м
[]
+2.9 +0.5 84 -3 -3 1014.6 998.9
23 23.06 Ю 7 45 км {ливн. осадки, дождь} 10/10 1470 м
[]
+3.0 +0.2 82 -3 -3 1014.8 999.1
00 24.06 ЮЗ 6 40 км 10/0
[]
+3.1 +0.3 82 -2 -2 1015.1 999.4
01 24.06 СВ 1 27 км 10/10 400 м
[]
+2.8 +0.4 84 +3 +3 1015.3 999.5
02 24.06 ЮЗ 1 45 км 10/10 450 м
[]
+2.9 +0.5 84 +1 +1 1015.3 999.5
03 24.06 В 3 40 км 10/10 660 м
[]
+2.1 +0.8 91 -2 -2 1015.0 999.2
04 24.06 В 1 40 км 10/10 750 м
[]
+2.7 +0.5 85 +1 +1 1014.9 999.1
05 24.06 ЮЗ 1 35 км 10/0 2000 м
[]
+2.9 +0.5 84 +3 +3 1014.6 998.9
06 24.06 штиль 0 40 км 10/10 1500 м
[]
+2.8 +0.6 85 +2 +2 1014.4 998.6 +1.9 +3.4
07 24.06 Ю 1 30 км 10/0 2000 м
[]
+3.0 +0.7 85 +1 +2 1014.3 998.6
08 24.06 СЗ 1 30 км 10/10 1230 м
[]
+3.0 +1.1 87 +1 +1 1014.3 998.6
09 24.06 Ю 1 30 км 10/10 1230 м
[]
+2.9 +1.2 89 +3 +3 1014.3 998.5
10 24.06 ЮЗ 3 35 км 10/10 1200 м
[]
+2.8 +1.4 90 -1 -1 1014.1 998.4
11 24.06 Ю 2 30 км 10/0 2000 м
[]
+3.4 +1.9 90 +1 +4 1013.7 998.0
12 24.06 ЮЗ 4 24 км 9/9 120 м
[]
+2.7 +1.9 94 -2 -2 1013.7 998.0
13 24.06 З 4 20 км 9/9 90 м
[]
+2.8 +1.6 92 -2 -1 1013.4 997.7
14 24.06 З 4 1400 м дымка 10/10 60 м
[]
+2.8 +1.8 93 -2 -2 1013.2 997.5
15 24.06 З 4 400 м осадки {дымка} ?/? +2.4 +1.9 96 -2 -2 1013.1 997.4
16 24.06 З 3 100 м слаб. снег {осадки} ?/? +2.4 +2.2 99 -2 -2 1012.7 996.9
17 24.06 З 2 200 м слаб. снег {осадки} ?/? +1.8 +1.8 100 -2 -2 1012.5 996.7
18 24.06 З 3 100 м ливневой дождь {снег} ?/? +1.6 +1.6 100 -3 -3 1012.5 996.7 +1.4 +3.9
19 24.06 З 4 100 м сильн. снег {ливн. осадки} 10/10 60 м
[]
+1.9 +1.6 98 -3 -3 1012.6 996.8
20 24.06 З 3 100 м снег {ливн. осадки} 10/10 60 м
[]
+1.7 +1.4 98 -3 -3 1012.5 996.7

 

Местоположение метеостанции Mittarfik Upernavik (Гренландия): широта 72.78 долгота -56.13 высота над уровнем моря 129 м.

В архиве по умолчанию представлена погода в Mittarfik Upernavik за последнюю неделю. Архивные данные за месяц целиком и за предыдущие месяцы, начиная с января 2011 года, Вы можете получить, выбрав интересующий диапазон дат из раскрывающегося списка и нажав кнопку "Ввод!".


*Определитесь, кто Вы:
робот инопланетянин человек

Внимание! Время в таблицах - всемирное. Для получения местного времени необходимо прибавить поправку, которая равна -3 ч.

Смотрите также архив погоды в соседних городах и на ближайших метеорологических станциях:

Погода в Kitsissorsuit (Гренландия) (149 км)
Погода в Nuussuaataa (Гренландия) (239 км)
Погода Qaarsut Mittarfia (Гренландия) (257 км)
Погода в Ilulissat (Гренландия) (435 км)
Погода в Aasiaat Mittarfia (Гренландия) (468 км)
Погода в Aasiaat (Гренландия) (469 км)
Погода в Клайд-Ривере (Нунавут, Канада) (502 км)
Погода в Клайд Ривер (Нунавут, Канада) (502 км)
Погода в Kitsissut (Гренландия) (562 км)
Погода в Summit (Гренландия) (584 км)

Пояснения к столбцам:

Ветер - указаны скорость ветра в м/с - средняя за 10 мин, порывы в срок и между сроками (в фигурных скобках) и направление, откуда дует ветер: С - северный, СВ - северо-восточный, В - восточный, ЮВ - юго-восточный, Ю - южный, ЮЗ - юго-западный, З - западный, СЗ - северо-западный.
Видимость - горизонтальная дальность видимости в метрах или километрах. При видимости от 1 до 10 км при отсутствии осадков обычно наблюдается дымка, при ухудшении видимости до 1 км и менее - туман. В сухую погоду видимость может ухудшаться дымом, пылью или мглою.
Явления - указаны атмосферные явления, наблюдавшиеся в срок или в последний час перед сроком; фигурными скобками обозначены явления, наблюдавшиеся между сроками (за 1-3 часа до срока); квадратными скобками обозначены град или гололедные отложения с указанием их диаметра в мм.
Облачность - указаны через наклонную черту общая и нижняя облачность в баллах и высота нижней границы облаков в метрах; квадратными скобками обозначены формы облаков: Ci - перистые, Cs - перисто-слоистые, Cc - перисто-кучевые, Ac - высококучевые, As - высокослоистые, Sc - слоисто-кучевые, Ns - слоисто-дождевые, Cu - кучевые, Cb - кучево-дождевые. Подробнее классификацию облаков см. в Атласе облаков (PDF).
T - Температура воздуха - температура, измеренная на высоте 2 м над землей.
Td - Температура точки росы - температура, при понижении до которой содержащийся в воздухе водяной пар достигнет насыщения.
f - Относительная влажность воздуха - влажноcть воздуха, измеренная на высоте 2 м над землей.
Te - Эффективная температура - температура, которую ощущает одетый по сезону человек в тени. Характеристика душности погоды. При расчете учитывается влияние влажности воздуха и скорости ветра на теплоощущения человека.
Tes - Эффективная температура на солнце - температура, которую ощущает человек, с поправкой на солнечный нагрев. Характеристика знойности погоды. Зависит от высоты солнца над горизонтом, облачности и скорости ветра. Ночью, в пасмурную погоду, а также при ветре 12 м/с и более поправка равна нулю.
P - Атмосферное давление - приведенное к уровню моря атмосферное давление.
Po - Атмосферное давление - измеренное на уровне метеостанции атмосферное давление.
Tmin - Минимальная температура - минимум температуры воздуха на высоте 2 м над землей.
Tmax - Максимальная температура - максимум температуры воздуха на высоте 2 м над землей.
R - Количество осадков - Количество выпавших осадков за период времени, мм. При наведении курсора мыши на число - период времени, за который выпало указанное количество осадков.
R24 - Количество осадков - Количество выпавших осадков за 24 часа, мм.
S - Снежный покров - Высота снежного покрова, см. При наведении курсора мыши на число - состояние снежного покрова и степень покрытия местности в баллах.